KJ6WEG Weather Reports


Display with metric or nautical units.
time (UTC)temp
F
wind
direction
speed
MPH
gust
MPH
rain 1hr
in
rain 24hr
in
rain mn
in
humidity
%
barometer
mb
20260509085554 53 162 4.0 8.0 0.00 0.00 0.00 91 1016.2
20260509085051 53 146 4.0 8.0 0.00 0.00 0.00 91 1016.2
20260509084601 53 175 2.0 8.0 0.00 0.00 0.00 91 1016.2
20260509084051 53 144 3.0 10.0 0.00 0.00 0.00 90 1016.4
20260509083554 53 171 5.0 10.0 0.00 0.00 0.00 91 1016.4
20260509083106 54 197 3.0 8.0 0.00 0.00 0.00 91 1016.4
20260509082555 54 150 4.0 9.0 0.00 0.00 0.00 91 1016.5
20260509082057 54 182 3.0 10.0 0.00 0.00 0.00 91 1016.4
20260509081554 54 111 4.0 10.0 0.00 0.00 0.00 91 1016.5
20260509081053 54 128 4.0 12.0 0.00 0.00 0.00 90 1016.5
20260509080554 54 151 5.0 12.0 0.00 0.00 0.00 90 1016.4
20260509080054 54 154 4.0 11.0 0.00 0.00 0.00 90 1016.5
20260509075554 54 145 6.0 11.0 0.00 0.00 0.00 90 1016.5
20260509075051 54 140 4.0 11.0 0.00 0.00 0.00 90 1016.7
20260509074610 54 115 5.0 10.0 0.00 0.00 0.00 90 1016.6
20260509074054 54 141 4.0 12.0 0.00 0.00 0.00 90 1016.6
20260509073554 54 129 4.0 12.0 0.00 0.00 0.00 90 1016.8
20260509073108 54 148 5.0 10.0 0.00 0.00 0.00 90 1016.6
20260509072555 54 119 5.0 10.0 0.00 0.00 0.00 90 1016.6
20260509072054 54 140 4.0 9.0 0.00 0.00 0.00 90 1016.7
20260509071558 54 147 4.0 13.0 0.00 0.00 0.00 90 1016.7
20260509071055 54 123 4.0 13.0 0.00 0.00 0.00 90 1016.6
20260509070555 54 134 4.0 9.0 0.00 0.00 0.00 90 1016.6
20260509070057 54 141 4.0 8.0 0.00 0.00 0.00 90 1016.8
20260509065553 54 154 4.0 8.0 0.00 0.00 0.00 90 1016.8
20260509065053 54 148 2.0 7.0 0.00 0.00 0.00 89 1016.8
20260509064556 54 141 3.0 8.0 0.00 0.00 0.00 89 1017.0
20260509064054 54 138 3.0 8.0 0.00 0.00 0.00 89 1017.0
20260509063553 54 146 2.0 7.0 0.00 0.00 0.00 90 1017.0
20260509063101 54 139 2.0 9.0 0.00 0.00 0.00 90 1016.9
20260509062553 54 158 4.0 9.0 0.00 0.00 0.00 90 1016.8
20260509062054 54 164 3.0 7.0 0.00 0.00 0.00 89 1017.0
20260509061553 54 180 3.0 9.0 0.00 0.00 0.00 89 1017.0
20260509061052 54 165 3.0 10.0 0.00 0.00 0.00 89 1017.0
20260509060552 54 188 5.0 10.0 0.00 0.00 0.00 89 1017.1
20260509060110 54 161 5.0 10.0 0.00 0.00 0.00 89 1017.1
20260509055551 54 202 4.0 10.0 0.00 0.00 0.00 89 1017.2
20260509055053 54 238 5.0 10.0 0.00 0.00 0.00 89 1017.2
20260509054554 54 219 3.0 8.0 0.00 0.00 0.00 89 1017.2
20260509054053 54 142 3.0 10.0 0.00 0.00 0.00 89 1017.2
20260509053554 54 167 4.0 10.0 0.00 0.00 0.00 89 1017.2
20260509053109 54 122 5.0 10.0 0.00 0.00 0.00 89 1017.1
20260509052551 54 157 3.0 9.0 0.00 0.00 0.00 89 1017.2
20260509052055 54 181 3.0 8.0 0.00 0.00 0.00 89 1017.2
20260509051604 55 173 3.0 8.0 0.00 0.00 0.00 88 1017.3
20260509051055 55 165 4.0 8.0 0.00 0.00 0.00 88 1017.2
20260509050555 55 157 5.0 8.0 0.00 0.00 0.00 88 1017.2
20260509050054 55 163 3.0 9.0 0.00 0.00 0.00 88 1017.2
20260509045554 55 213 5.0 9.0 0.00 0.00 0.00 87 1017.0
20260509045054 55 136 5.0 9.0 0.00 0.00 0.00 87 1017.0
20260509044606 55 184 3.0 8.0 0.00 0.00 0.00 87 1017.0
20260509044054 55 131 3.0 9.0 0.00 0.00 0.00 87 1017.0
20260509043555 55 145 4.0 9.0 0.00 0.00 0.00 87 1017.0
20260509043100 55 132 3.0 8.0 0.00 0.00 0.00 87 1017.0
20260509042554 55 114 4.0 8.0 0.00 0.00 0.00 87 1016.9
20260509042054 55 109 2.0 7.0 0.00 0.00 0.00 87 1016.9
20260509041558 55 116 2.0 7.0 0.00 0.00 0.00 87 1016.8
20260509041055 56 138 3.0 9.0 0.00 0.00 0.00 87 1016.8
20260509040553 56 166 4.0 9.0 0.00 0.00 0.00 87 1016.7
20260509040109 56 164 3.0 8.0 0.00 0.00 0.00 87 1016.7
20260509035553 56 140 2.0 8.0 0.00 0.00 0.00 88 1016.7
20260509035054 56 0 1.0 6.0 0.00 0.00 0.00 88 1016.7
20260509034605 56 182 1.0 5.0 0.00 0.00 0.00 88 1016.8
20260509034053 56 159 0.0 5.0 0.00 0.00 0.00 87 1016.8
20260509033552 56 0 1.0 8.0 0.00 0.00 0.00 87 1016.8
20260509033131 56 206 2.0 8.0 0.00 0.00 0.00 87 1016.7
20260509032554 56 247 2.0 5.0 0.00 0.00 0.00 87 1016.7
20260509032053 56 0 1.0 6.0 0.00 0.00 0.00 86 1016.7
20260509031559 56 220 2.0 6.0 0.00 0.00 0.00 86 1016.6
20260509031054 57 232 2.0 7.0 0.00 0.00 0.00 86 1016.6
20260509030554 57 234 1.0 7.0 0.00 0.00 0.00 85 1016.5
20260509030058 57 207 0.0 6.0 0.00 0.00 0.00 85 1016.6
20260509025554 57 0 1.0 6.0 0.00 0.00 0.00 84 1016.5
20260509025054 58 244 0.0 8.0 0.00 0.00 0.00 84 1016.5
20260509024606 58 239 2.0 8.0 0.00 0.00 0.00 83 1016.5
20260509024052 58 0 0.0 7.0 0.00 0.00 0.00 83 1016.5
20260509023552 58 231 1.0 7.0 0.00 0.00 0.00 83 1016.4
20260509023055 59 229 1.0 8.0 0.00 0.00 0.00 82 1016.5
20260509022554 59 240 2.0 8.0 0.00 0.00 0.00 82 1016.4
20260509022054 59 0 2.0 8.0 0.00 0.00 0.00 81 1016.4
20260509021558 60 0 2.0 7.0 0.00 0.00 0.00 81 1016.3
20260509021053 60 248 1.0 8.0 0.00 0.00 0.00 81 1016.3
20260509020554 60 0 1.0 8.0 0.00 0.00 0.00 81 1016.3
20260509020107 60 247 1.0 5.0 0.00 0.00 0.00 80 1016.2
20260509015552 60 223 1.0 5.0 0.00 0.00 0.00 81 1016.3
20260509015051 60 243 1.0 4.0 0.00 0.00 0.00 81 1016.3
20260509014554 60 240 1.0 8.0 0.00 0.00 0.00 81 1016.4
20260509014053 60 212 2.0 8.0 0.00 0.00 0.00 81 1016.4
20260509013555 60 236 1.0 7.0 0.00 0.00 0.00 81 1016.4
20260509013056 60 252 1.0 7.0 0.00 0.00 0.00 82 1016.4
20260509012553 60 255 1.0 8.0 0.00 0.00 0.00 82 1016.5
20260509012054 59 257 2.0 8.0 0.00 0.00 0.00 82 1016.5
20260509011559 60 173 2.0 9.0 0.00 0.00 0.00 81 1016.5
20260509011057 60 360 2.0 9.0 0.00 0.00 0.00 81 1016.6
20260509010557 60 213 2.0 9.0 0.00 0.00 0.00 81 1016.6
20260509010059 60 257 4.0 9.0 0.00 0.00 0.00 80 1016.7
20260509005554 61 360 3.0 8.0 0.00 0.00 0.00 80 1016.7
20260509005055 61 249 2.0 9.0 0.00 0.00 0.00 80 1016.7
20260509004555 61 209 2.0 9.0 0.00 0.00 0.00 80 1016.8
20260509004053 61 200 3.0 8.0 0.00 0.00 0.00 79 1016.8
20260509003554 61 294 1.0 11.0 0.00 0.00 0.00 80 1016.7
20260509003058 61 298 3.0 11.0 0.00 0.00 0.00 80 1016.8
20260509002553 61 259 2.0 9.0 0.00 0.00 0.00 80 1016.8
20260509002051 61 248 2.0 7.0 0.00 0.00 0.00 80 1016.8
20260509001553 62 217 2.0 7.0 0.00 0.00 0.00 78 1016.8
20260509001055 62 225 1.0 10.0 0.00 0.00 0.00 79 1016.8
20260509000554 62 196 2.0 10.0 0.00 0.00 0.00 79 1016.9
20260509000054 62 244 2.0 10.0 0.00 0.00 0.00 78 1016.9
20260508235557 62 0 2.0 9.0 0.00 0.00 0.00 79 1017.0
20260508235054 63 219 2.0 9.0 0.00 0.00 0.00 78 1017.1
20260508234600 63 221 3.0 9.0 0.00 0.00 0.00 77 1017.1
20260508234054 63 230 2.0 8.0 0.00 0.00 0.00 78 1017.1
20260508233553 63 360 3.0 8.0 0.00 0.00 0.00 76 1017.2
20260508233104 63 236 1.0 8.0 0.00 0.00 0.00 77 1017.3
20260508232554 63 194 2.0 12.0 0.00 0.00 0.00 77 1017.3
20260508232054 63 222 2.0 12.0 0.00 0.00 0.00 77 1017.2
20260508231552 63 246 2.0 9.0 0.00 0.00 0.00 76 1017.4
20260508231053 63 231 3.0 12.0 0.00 0.00 0.00 77 1017.3
20260508230557 63 151 2.0 12.0 0.00 0.00 0.00 78 1017.5
20260508230055 63 242 3.0 12.0 0.00 0.00 0.00 77 1017.5
20260508225554 63 284 3.0 11.0 0.00 0.00 0.00 78 1017.6
20260508225051 63 250 4.0 11.0 0.00 0.00 0.00 76 1017.7
20260508224557 64 298 2.0 11.0 0.00 0.00 0.00 77 1017.7
20260508224054 64 213 3.0 11.0 0.00 0.00 0.00 77 1017.7
20260508223554 64 221 3.0 10.0 0.00 0.00 0.00 77 1017.7
20260508223055 64 213 1.0 10.0 0.00 0.00 0.00 78 1017.8
20260508222554 63 211 4.0 11.0 0.00 0.00 0.00 77 1017.8
20260508222053 63 306 3.0 12.0 0.00 0.00 0.00 77 1017.9
20260508221557 64 288 3.0 12.0 0.00 0.00 0.00 76 1017.8
20260508221055 64 211 2.0 10.0 0.00 0.00 0.00 76 1018.0
20260508220556 64 231 4.0 10.0 0.00 0.00 0.00 76 1018.0
20260508215553 64 281 3.0 12.0 0.00 0.00 0.00 78 1018.2
20260508215054 64 234 4.0 12.0 0.00 0.00 0.00 76 1018.3
20260508214555 64 0 2.0 10.0 0.00 0.00 0.00 77 1018.3
20260508214054 63 217 3.0 10.0 0.00 0.00 0.00 77 1018.3
20260508213553 63 202 3.0 10.0 0.00 0.00 0.00 77 1018.3
20260508213059 63 234 4.0 9.0 0.00 0.00 0.00 77 1018.3
20260508212554 63 225 2.0 10.0 0.00 0.00 0.00 78 1018.3
20260508212053 63 221 4.0 10.0 0.00 0.00 0.00 77 1018.4
20260508211557 63 294 4.0 11.0 0.00 0.00 0.00 77 1018.5
20260508211053 64 205 3.0 11.0 0.00 0.00 0.00 76 1018.5
20260508210553 64 236 2.0 10.0 0.00 0.00 0.00 76 1018.6
20260508210057 64 242 2.0 8.0 0.00 0.00 0.00 76 1018.5
20260508205554 64 220 2.0 8.0 0.00 0.00 0.00 76 1018.6
20260508205054 64 300 1.0 8.0 0.00 0.00 0.00 77 1018.8
20260508204555 64 209 3.0 8.0 0.00 0.00 0.00 75 1018.7
20260508204057 64 284 2.0 8.0 0.00 0.00 0.00 75 1018.7
20260508203555 64 221 3.0 8.0 0.00 0.00 0.00 74 1018.7
20260508203054 64 250 1.0 7.0 0.00 0.00 0.00 75 1018.9
20260508202556 64 213 1.0 8.0 0.00 0.00 0.00 77 1018.8
20260508202054 63 211 2.0 8.0 0.00 0.00 0.00 76 1018.8
20260508201557 63 228 1.0 9.0 0.00 0.00 0.00 77 1018.8
20260508201054 62 272 3.0 9.0 0.00 0.00 0.00 77 1018.8
20260508200554 62 238 3.0 9.0 0.00 0.00 0.00 77 1018.9
20260508200053 62 239 2.0 10.0 0.00 0.00 0.00 77 1018.9
20260508195553 62 229 4.0 10.0 0.00 0.00 0.00 78 1018.9
20260508195055 62 203 2.0 9.0 0.00 0.00 0.00 78 1018.9
20260508194607 62 238 4.0 9.0 0.00 0.00 0.00 77 1018.9
20260508194054 61 198 2.0 11.0 0.00 0.00 0.00 78 1018.9
20260508193554 61 173 4.0 11.0 0.00 0.00 0.00 78 1019.0
20260508193117 61 186 4.0 10.0 0.00 0.00 0.00 80 1019.0
20260508192554 60 171 2.0 10.0 0.00 0.00 0.00 81 1019.1
20260508192057 60 243 4.0 9.0 0.00 0.00 0.00 80 1019.2
20260508191604 60 360 3.0 9.0 0.00 0.00 0.00 81 1019.3
20260508191054 60 169 2.0 9.0 0.00 0.00 0.00 82 1019.3
20260508190554 59 360 3.0 9.0 0.00 0.00 0.00 83 1019.3
20260508190110 58 191 3.0 9.0 0.00 0.00 0.00 82 1019.3
20260508185554 58 174 2.0 10.0 0.00 0.00 0.00 84 1019.3
20260508185054 58 180 4.0 10.0 0.00 0.00 0.00 83 1019.3
20260508184608 58 205 4.0 9.0 0.00 0.00 0.00 83 1019.3
20260508184054 58 163 4.0 11.0 0.00 0.00 0.00 83 1019.5
20260508183555 58 213 3.0 11.0 0.00 0.00 0.00 83 1019.6
20260508183101 58 178 4.0 10.0 0.00 0.00 0.00 83 1019.5
20260508182552 58 188 3.0 10.0 0.00 0.00 0.00 83 1019.6
20260508182055 58 210 3.0 10.0 0.00 0.00 0.00 83 1019.6
20260508181605 58 244 3.0 12.0 0.00 0.00 0.00 82 1019.6
20260508181054 59 157 3.0 12.0 0.00 0.00 0.00 81 1019.5
20260508180558 58 226 2.0 11.0 0.00 0.00 0.00 82 1019.5
20260508180106 58 163 5.0 10.0 0.00 0.00 0.00 82 1019.6
20260508175555 58 190 4.0 10.0 0.00 0.00 0.00 82 1019.6
20260508175052 58 245 5.0 14.0 0.00 0.00 0.00 82 1019.5
20260508174600 58 223 4.0 14.0 0.00 0.00 0.00 82 1019.4
20260508174052 58 178 4.0 9.0 0.00 0.00 0.00 81 1019.4
20260508173555 58 171 4.0 10.0 0.00 0.00 0.00 82 1019.5
20260508173101 57 155 3.0 11.0 0.00 0.00 0.00 82 1019.6
20260508172558 57 198 4.0 11.0 0.00 0.00 0.00 82 1019.6
20260508172055 57 132 4.0 9.0 0.00 0.00 0.00 83 1019.6
20260508171555 57 140 2.0 11.0 0.00 0.00 0.00 83 1019.5
20260508171053 57 156 6.0 11.0 0.00 0.00 0.00 83 1019.5
20260508170555 56 155 4.0 12.0 0.00 0.00 0.00 84 1019.5
20260508170059 56 96 7.0 12.0 0.00 0.00 0.00 83 1019.4
20260508165552 56 360 5.0 11.0 0.00 0.00 0.00 83 1019.4
20260508165054 56 188 3.0 11.0 0.00 0.00 0.00 84 1019.5
20260508164604 56 144 3.0 8.0 0.00 0.00 0.00 84 1019.4
20260508164052 56 149 2.0 12.0 0.00 0.00 0.00 84 1019.5
20260508163554 56 148 5.0 12.0 0.00 0.00 0.00 84 1019.4
20260508163107 55 252 3.0 9.0 0.00 0.00 0.00 85 1019.4
20260508162551 55 175 3.0 11.0 0.00 0.00 0.00 86 1019.3
20260508162054 55 182 4.0 11.0 0.00 0.00 0.00 86 1019.4
20260508161559 55 160 4.0 12.0 0.00 0.00 0.00 86 1019.3
20260508161054 55 182 4.0 12.0 0.00 0.00 0.00 86 1019.4
20260508160554 54 177 2.0 9.0 0.00 0.00 0.00 86 1019.2
20260508160055 54 171 5.0 10.0 0.00 0.00 0.00 86 1019.3
20260508155555 54 161 4.0 10.0 0.00 0.00 0.00 87 1019.3
20260508155052 54 180 4.0 10.0 0.00 0.00 0.00 87 1019.2
20260508154554 54 182 4.0 10.0 0.00 0.00 0.00 87 1019.2
20260508154055 54 165 3.0 9.0 0.00 0.00 0.00 87 1019.2
20260508153556 54 157 3.0 9.0 0.00 0.00 0.00 88 1019.2
20260508153104 54 154 4.0 8.0 0.00 0.00 0.00 87 1019.1
20260508152556 53 137 3.0 10.0 0.00 0.00 0.00 88 1019.3
20260508152054 53 209 5.0 10.0 0.00 0.00 0.00 88 1019.2
20260508151557 53 223 2.0 8.0 0.00 0.00 0.00 88 1019.2
20260508151052 53 225 4.0 9.0 0.00 0.00 0.00 88 1019.1
20260508150551 53 146 4.0 9.0 0.00 0.00 0.00 88 1019.1
20260508150055 53 141 3.0 8.0 0.00 0.00 0.00 88 1019.1
20260508145555 53 177 3.0 10.0 0.00 0.00 0.00 88 1019.2
20260508145054 53 138 4.0 10.0 0.00 0.00 0.00 88 1019.2
20260508144556 53 200 4.0 10.0 0.00 0.00 0.00 89 1019.1
20260508144054 53 150 4.0 10.0 0.00 0.00 0.00 88 1019.1
20260508143554 53 161 5.0 9.0 0.00 0.00 0.00 88 1019.1
20260508143114 53 159 3.0 8.0 0.00 0.00 0.00 88 1019.1
20260508142556 53 240 4.0 8.0 0.00 0.00 0.00 88 1019.1
20260508142056 53 246 2.0 10.0 0.00 0.00 0.00 88 1019.1
20260508141602 53 190 3.0 11.0 0.00 0.00 0.00 88 1019.1
20260508141052 53 184 4.0 12.0 0.00 0.00 0.00 88 1018.9
20260508140551 53 236 6.0 12.0 0.00 0.00 0.00 88 1018.9
20260508140112 53 222 2.0 8.0 0.00 0.00 0.00 88 1019.0
20260508135555 53 159 4.0 8.0 0.00 0.00 0.00 88 1018.9
20260508135055 53 155 4.0 8.0 0.00 0.00 0.00 88 1018.9
20260508134554 53 169 2.0 7.0 0.00 0.00 0.00 88 1018.9
20260508134051 53 214 2.0 11.0 0.00 0.00 0.00 88 1018.8
20260508133556 53 194 4.0 11.0 0.00 0.00 0.00 88 1018.6
20260508133101 53 152 5.0 11.0 0.00 0.00 0.00 88 1018.7
20260508132554 53 173 3.0 9.0 0.00 0.00 0.00 89 1018.5
20260508132054 53 215 3.0 9.0 0.00 0.00 0.00 88 1018.6
20260508131555 53 164 3.0 9.0 0.00 0.00 0.00 89 1018.5
20260508131108 53 165 2.0 11.0 0.00 0.00 0.00 89 1018.5
20260508130554 53 194 3.0 11.0 0.00 0.00 0.00 88 1018.6
20260508130053 53 177 5.0 9.0 0.00 0.00 0.00 88 1018.7
20260508125556 53 171 3.0 10.0 0.00 0.00 0.00 89 1018.5
20260508125052 53 171 3.0 10.0 0.00 0.00 0.00 88 1018.6
20260508124555 53 159 4.0 8.0 0.00 0.00 0.00 89 1018.6
20260508124054 53 180 2.0 9.0 0.00 0.00 0.00 89 1018.5
20260508123554 53 156 3.0 9.0 0.00 0.00 0.00 89 1018.5
20260508123054 53 212 3.0 10.0 0.00 0.00 0.00 89 1018.5
20260508122554 53 178 3.0 10.0 0.00 0.00 0.00 89 1018.5
20260508122054 53 168 5.0 10.0 0.00 0.00 0.00 89 1018.5
20260508121553 53 198 4.0 10.0 0.00 0.00 0.00 89 1018.4
20260508121054 53 194 4.0 10.0 0.00 0.00 0.00 90 1018.5
20260508120553 53 209 4.0 9.0 0.00 0.00 0.00 89 1018.4
20260508120113 53 129 3.0 10.0 0.00 0.00 0.00 89 1018.5
20260508115558 53 162 5.0 10.0 0.00 0.00 0.00 90 1018.6
20260508115054 53 169 3.0 9.0 0.00 0.00 0.00 90 1018.5
20260508114604 53 193 4.0 11.0 0.00 0.00 0.00 90 1018.5
20260508114056 53 167 3.0 11.0 0.00 0.00 0.00 90 1018.6
20260508113555 53 182 5.0 10.0 0.00 0.00 0.00 90 1018.8
20260508113102 53 171 4.0 9.0 0.00 0.00 0.00 90 1018.7
20260508112554 53 153 3.0 12.0 0.00 0.00 0.00 90 1018.7
20260508112055 53 245 3.0 12.0 0.00 0.00 0.00 90 1018.7
20260508111556 53 209 3.0 10.0 0.00 0.00 0.00 90 1018.6
20260508111055 53 237 3.0 13.0 0.00 0.00 0.00 90 1018.6
20260508110553 53 149 3.0 13.0 0.00 0.00 0.00 90 1018.5
20260508110107 53 172 3.0 13.0 0.00 0.00 0.00 90 1018.5
20260508105555 53 216 4.0 13.0 0.00 0.00 0.00 91 1018.6
20260508105054 53 169 6.0 9.0 0.00 0.00 0.00 91 1018.6
20260508104554 53 148 3.0 8.0 0.00 0.00 0.00 91 1018.6
20260508104057 53 171 4.0 9.0 0.00 0.00 0.00 91 1018.7
20260508103554 53 162 4.0 10.0 0.00 0.00 0.00 91 1018.8
20260508103059 53 163 2.0 12.0 0.00 0.00 0.00 91 1018.7
20260508102553 53 196 3.0 12.0 0.00 0.00 0.00 91 1018.7
20260508102057 53 167 2.0 9.0 0.00 0.00 0.00 91 1018.8
20260508101602 53 227 3.0 10.0 0.00 0.00 0.00 90 1018.7
20260508101058 53 227 3.0 10.0 0.00 0.00 0.00 90 1018.8
20260508100557 53 201 3.0 9.0 0.00 0.00 0.00 90 1018.7
20260508100131 53 197 3.0 9.0 0.00 0.00 0.00 90 1018.8
20260508095554 53 211 3.0 9.0 0.00 0.00 0.00 90 1018.9
20260508095055 53 234 3.0 9.0 0.00 0.00 0.00 90 1018.8
20260508094556 53 169 4.0 9.0 0.00 0.00 0.00 90 1018.8
20260508094055 53 210 4.0 9.0 0.00 0.00 0.00 90 1018.9
20260508093554 53 190 4.0 10.0 0.00 0.00 0.00 89 1018.8
20260508093057 53 246 4.0 10.0 0.00 0.00 0.00 89 1018.8
20260508092553 53 192 5.0 10.0 0.00 0.00 0.00 89 1018.8
20260508092054 53 160 3.0 8.0 0.00 0.00 0.00 89 1018.8
20260508091616 53 171 2.0 9.0 0.00 0.00 0.00 89 1018.7
20260508091059 53 171 4.0 9.0 0.00 0.00 0.00 89 1018.6
20260508090557 53 258 2.0 8.0 0.00 0.00 0.00 89 1018.6